COSMOS 2544 (759)

Last updated on Sat Mar 14 2026 00:03:27 GMT+0000 (Coordinated Universal Time)

1 44850U 19088A 26071.83072279 .00000048 00000+0 00000+0 0 9991 2 44850 65.5109 76.9450 0015837 260.0311 99.8275 2.13102157 48663
UTC large
Height (km)
Speed (km/s)
/
Latitude / Longitude
Inclination (degrees)
Orbital Period (minutes)
Azimuth
Elevation
Range (km)
Doppler Factor

Next 0 passes for location: London (51.5072 / 0.1276)

Sorry there are no passes over London.